Regional Weather Roundup
Issued by NWS Midland/Odessa, TX

Skip options and go directly to product.
Home | Oldest Version | Previous Version | Current Version | All | Text Only | Save Text | Print | Product List | Glossary On

Skip product version selection by date and time.   
856
ASUS44 KMAF 231010
RWRMAF
MIDLAND AREA WEATHER ROUNDUP
NATIONAL WEATHER SERVICE MIDLAND TX
500 AM CDT THU OCT 23 2014

...IN SOUTHWEST TEXAS AND SOUTHEAST NEW MEXICO...

CITY           SKY/WX    TMP DP  RH WIND       PRES   REMARKS
ALPINE         CLOUDY    59  57  94 SW8       30.24S
ANDREWS        FOG       51  50  99 E3        30.13S VSB 1/4
ARTESIA        NOT AVBL
BIG SPRING     CLOUDY    59  56  91 S6        30.14F
CARLSBAD       FOG       60  58  92 S7        30.10S VSB 1/4
DRYDEN           N/A     62  61  96 SW6       30.10F
FORT STOCKTON  CLEAR     57  56  96 S7        30.10F
GUAD PASS      CLEAR     55  54  96 SW12      30.22S FOG
HOBBS          FOG       55  55 100 S8        30.13F VSB<1/4
MARFA          CLOUDY    57  57 100 S3        30.22F
MIDLAND AIRPK  CLEAR     56  55  94 SE3       30.12F
MIDLAND INTL   CLEAR     54  52  93 SE6       30.11F
ODESSA         CLEAR     56  54  93 S7        30.12F
PECOS          CLEAR     57  55  95 CALM      30.09F FOG
PRESIDIO       FAIR      63  59  88 N9        30.12S
SEMINOLE       FOG       55  55  98 CALM      30.13F VSB 1/4
SNYDER         CLEAR     57  54  89 CALM      30.14R
WINK           CLEAR     56  55  97 NE3       30.09F
$$
...OTHER STATIONS IN TEXAS...

CITY           SKY/WX    TMP DP  RH WIND       PRES   REMARKS
ABILENE        CLOUDY    63  56  78 SE3       30.12S
AMARILLO       MOCLDY    59  58  96 SW14      30.10F
AUSTIN         CLOUDY    64  63  96 CALM      30.08F
BROWNSVILLE    CLEAR     69  67  93 NW5       29.99F
CORPUS CHRISTI PTCLDY    68  63  84 N7        30.03F
DALLAS FTW     CLOUDY    65  54  67 SE6       30.11F
DEL RIO        CLOUDY    64  63  96 CALM      30.07F FOG
EL PASO        CLEAR     58  53  84 CALM      30.14S
HOUSTON INT    MOCLDY    60  56  86 NE6       30.08F
LUBBOCK        CLEAR     53  51  93 S6        30.12F
SAN ANGELO     PTCLDY    56  54  93 S5        30.12S
SAN ANTONIO    DRIZZLE   68  65  90 NE3       30.10F
WACO           CLOUDY    65  58  78 CALM      30.11R
WICHITA FALLS  NOT AVBL
$$
...OTHER LOCATIONS IN NEW MEXICO...

CITY           SKY/WX    TMP DP  RH WIND       PRES   REMARKS
ALAMAGORDO     NOT AVBL
ALBUQUERQUE    CLEAR     56  43  61 CALM      30.21S
CANNON AFB     FOG       51  51  98 W5        30.13F VSB 1/4
CLOVIS         CLOUDY    57  54  88 S6        30.15F
HOLLOMAN AFB   CLEAR     52  48  86 CALM      30.15S
ROSWELL        CLOUDY    58  57  97 S5        30.12S FOG
RUIDOSO        CLEAR     48  41  76 W8        30.29F
SANTA FE       CLEAR     46  35  65 N9        30.24S
TRUTH OR CONSE CLEAR     55  47  74 SW5       30.18S
TUCUMCARI      CLEAR     57  54  89 SW6       30.09S
$$

USA.gov is the U.S. government's official web portal to all federal, state and local government web resources and services.